Time,TemperatureF,DewpointF,PressureIn,WindDirection,WindDirectionDegrees,WindSpeedMPH,WindSpeedGustMPH,Humidity,HourlyPrecipIn,Conditions,Clouds,dailyrainin,SoftwareType,DateUTC
2013-03-06 00:00:00,19.4,15.1,30.48,NW,305,1.0,1.0,83,0.00,,,0.00,Wunderground v.1.15,2013-03-06 06:00:00,
2013-03-06 00:10:00,19.2,14.9,30.48,NW,307,1.0,1.0,83,0.00,,,0.00,Wunderground v.1.15,2013-03-06 06:10:00,
2013-03-06 00:15:00,19.1,14.8,30.48,WNW,289,1.0,2.0,83,0.00,,,0.00,Wunderground v.1.15,2013-03-06 06:15:00,
2013-03-06 00:25:00,19.0,15.0,30.48,NW,305,1.0,2.0,84,0.00,,,0.00,Wunderground v.1.15,2013-03-06 06:25:00,
2013-03-06 00:35:00,18.8,14.5,30.48,North,354,0.0,1.0,83,0.00,,,0.00,Wunderground v.1.15,2013-03-06 06:35:00,
2013-03-06 00:40:00,18.4,14.1,30.48,North,357,0.0,0.0,83,0.00,,,0.00,Wunderground v.1.15,2013-03-06 06:40:00,
2013-03-06 00:50:00,18.1,14.4,30.48,North,4,0.0,1.0,85,0.00,,,0.00,Wunderground v.1.15,2013-03-06 06:50:00,
2013-03-06 00:55:00,17.8,14.1,30.47,North,6,0.0,1.0,85,0.00,,,0.00,Wunderground v.1.15,2013-03-06 06:55:00,
2013-03-06 01:05:00,17.9,14.4,30.48,NW,305,0.0,5.0,86,0.00,,,0.00,Wunderground v.1.15,2013-03-06 07:05:00,
2013-03-06 01:15:00,18.0,14.3,30.49,West,271,0.0,5.0,85,0.00,,,0.00,Wunderground v.1.15,2013-03-06 07:15:00,
2013-03-06 01:25:00,17.5,13.8,30.49,WNW,285,0.0,5.0,85,0.00,,,0.00,Wunderground v.1.15,2013-03-06 07:25:00,
2013-03-06 01:35:00,17.1,13.6,30.49,WNW,285,0.0,5.0,86,0.00,,,0.00,Wunderground v.1.15,2013-03-06 07:35:00,
2013-03-06 01:45:00,16.8,13.6,30.49,NNE,16,0.0,5.0,87,0.00,,,0.00,Wunderground v.1.15,2013-03-06 07:45:00,
2013-03-06 01:55:00,16.6,13.4,30.49,NW,326,0.0,5.0,87,0.00,,,0.00,Wunderground v.1.15,2013-03-06 07:55:00,
2013-03-06 02:05:00,16.9,13.7,30.49,WNW,295,0.0,5.0,87,0.00,,,0.00,Wunderground v.1.15,2013-03-06 08:05:00,
2013-03-06 02:15:00,16.7,13.5,30.49,NE,44,0.0,5.0,87,0.00,,,0.00,Wunderground v.1.15,2013-03-06 08:15:00,
2013-03-06 02:25:00,16.2,13.3,30.49,NE,50,0.0,5.0,88,0.00,,,0.00,Wunderground v.1.15,2013-03-06 08:25:00,
2013-03-06 02:35:00,16.4,13.5,30.49,North,351,0.0,5.0,88,0.00,,,0.00,Wunderground v.1.15,2013-03-06 08:35:00,
2013-03-06 02:45:00,16.3,13.4,30.48,North,351,0.0,5.0,88,0.00,,,0.00,Wunderground v.1.15,2013-03-06 08:45:00,
2013-03-06 02:55:00,15.9,13.0,30.48,North,6,0.0,5.0,88,0.00,,,0.00,Wunderground v.1.15,2013-03-06 08:55:00,
2013-03-06 03:05:00,15.5,12.6,30.48,North,6,0.0,5.0,88,0.00,,,0.00,Wunderground v.1.15,2013-03-06 09:05:00,
2013-03-06 03:15:00,15.2,12.5,30.49,North,6,0.0,5.0,89,0.00,,,0.00,Wunderground v.1.15,2013-03-06 09:15:00,
2013-03-06 03:25:00,14.8,12.1,30.48,North,6,0.0,5.0,89,0.00,,,0.00,Wunderground v.1.15,2013-03-06 09:25:00,
2013-03-06 03:30:00,14.5,11.9,30.48,North,6,0.0,5.0,89,0.00,,,0.00,Wunderground v.1.15,2013-03-06 09:30:00,
2013-03-06 03:35:00,14.2,11.6,30.48,North,6,0.0,5.0,89,0.00,,,0.00,Wunderground v.1.15,2013-03-06 09:35:00,
2013-03-06 03:45:00,13.9,11.5,30.48,North,6,0.0,5.0,90,0.00,,,0.00,Wunderground v.1.15,2013-03-06 09:45:00,
2013-03-06 03:55:00,13.7,11.3,30.48,North,6,0.0,5.0,90,0.00,,,0.00,Wunderground v.1.15,2013-03-06 09:55:00,
2013-03-06 04:05:00,13.7,11.3,30.47,NE,43,0.0,5.0,90,0.00,,,0.00,Wunderground v.1.15,2013-03-06 10:05:00,
2013-03-06 04:15:00,13.5,11.1,30.47,NE,42,0.0,5.0,90,0.00,,,0.00,Wunderground v.1.15,2013-03-06 10:15:00,
2013-03-06 04:25:00,13.5,11.1,30.47,NE,43,0.0,5.0,90,0.00,,,0.00,Wunderground v.1.15,2013-03-06 10:25:00,
2013-03-06 04:30:00,13.2,10.8,30.47,NE,43,0.0,5.0,90,0.00,,,0.00,Wunderground v.1.15,2013-03-06 10:30:00,
2013-03-06 04:35:00,13.0,10.6,30.48,NE,43,0.0,5.0,90,0.00,,,0.00,Wunderground v.1.15,2013-03-06 10:35:00,
2013-03-06 04:45:00,12.8,10.4,30.48,NE,43,0.0,5.0,90,0.00,,,0.00,Wunderground v.1.15,2013-03-06 10:45:00,
2013-03-06 04:55:00,12.7,10.3,30.48,NE,43,0.0,5.0,90,0.00,,,0.00,Wunderground v.1.15,2013-03-06 10:55:00,
2013-03-06 05:05:00,12.6,10.2,30.49,NE,43,0.0,5.0,90,0.00,,,0.00,Wunderground v.1.15,2013-03-06 11:05:00,
2013-03-06 05:15:00,12.7,10.3,30.49,NE,43,0.0,5.0,90,0.00,,,0.00,Wunderground v.1.15,2013-03-06 11:15:00,
2013-03-06 05:25:00,12.6,10.2,30.49,NE,43,0.0,5.0,90,0.00,,,0.00,Wunderground v.1.15,2013-03-06 11:25:00,
2013-03-06 05:35:00,12.8,10.4,30.49,NE,43,0.0,5.0,90,0.00,,,0.00,Wunderground v.1.15,2013-03-06 11:35:00,
2013-03-06 05:45:00,13.1,11.0,30.49,NE,43,0.0,5.0,91,0.00,,,0.00,Wunderground v.1.15,2013-03-06 11:45:00,
2013-03-06 05:55:00,14.3,12.4,30.49,East,81,0.0,5.0,92,0.00,,,0.00,Wunderground v.1.15,2013-03-06 11:55:00,
2013-03-06 06:00:00,14.7,12.8,30.48,ESE,123,1.0,1.0,92,0.00,,,0.00,Wunderground v.1.15,2013-03-06 12:00:00,
2013-03-06 06:10:00,14.9,12.7,30.48,ESE,108,1.0,1.0,91,0.00,,,0.00,Wunderground v.1.15,2013-03-06 12:10:00,
2013-03-06 06:15:00,15.0,12.8,30.48,East,96,0.0,1.0,91,0.00,,,0.00,Wunderground v.1.15,2013-03-06 12:15:00,
2013-03-06 06:25:00,15.3,13.1,30.48,East,90,0.0,2.0,91,0.00,,,0.00,Wunderground v.1.15,2013-03-06 12:25:00,
2013-03-06 06:35:00,15.4,13.2,30.47,East,91,1.0,2.0,91,0.00,,,0.00,Wunderground v.1.15,2013-03-06 12:35:00,
2013-03-06 06:40:00,15.4,13.2,30.47,ESE,113,1.0,3.0,91,0.00,,,0.00,Wunderground v.1.15,2013-03-06 12:40:00,
2013-03-06 06:45:00,15.4,13.5,30.47,ESE,104,1.0,3.0,92,0.00,,,0.00,Wunderground v.1.15,2013-03-06 12:45:00,
2013-03-06 06:55:00,15.5,13.3,30.47,East,94,1.0,1.0,91,0.00,,,0.00,Wunderground v.1.15,2013-03-06 12:55:00,
2013-03-06 07:05:00,15.5,13.3,30.47,East,99,2.0,3.0,91,0.00,,,0.00,Wunderground v.1.15,2013-03-06 13:05:00,
2013-03-06 07:15:00,15.7,13.5,30.47,East,84,1.0,3.0,91,0.00,,,0.00,Wunderground v.1.15,2013-03-06 13:15:00,
2013-03-06 07:25:00,16.0,13.8,30.48,ESE,110,1.0,3.0,91,0.00,,,0.00,Wunderground v.1.15,2013-03-06 13:25:00,
2013-03-06 07:35:00,16.3,14.1,30.48,ENE,70,1.0,3.0,91,0.00,,,0.00,Wunderground v.1.15,2013-03-06 13:35:00,
2013-03-06 07:40:00,16.5,14.3,30.47,ESE,117,1.0,3.0,91,0.00,,,0.00,Wunderground v.1.15,2013-03-06 13:40:00,
2013-03-06 07:50:00,16.5,14.3,30.48,NNE,18,2.0,2.0,91,0.00,,,0.00,Wunderground v.1.15,2013-03-06 13:50:00,
2013-03-06 07:55:00,16.7,14.5,30.49,SE,126,1.0,3.0,91,0.00,,,0.00,Wunderground v.1.15,2013-03-06 13:55:00,
2013-03-06 08:05:00,16.9,14.5,30.49,ENE,65,1.0,3.0,90,0.00,,,0.00,Wunderground v.1.15,2013-03-06 14:05:00,
2013-03-06 08:15:00,16.8,14.6,30.50,East,82,1.0,3.0,91,0.00,,,0.00,Wunderground v.1.15,2013-03-06 14:15:00,
2013-03-06 08:25:00,16.9,14.7,30.50,ESE,118,1.0,3.0,91,0.00,,,0.00,Wunderground v.1.15,2013-03-06 14:25:00,
2013-03-06 08:35:00,17.1,14.9,30.50,ESE,111,1.0,3.0,91,0.00,,,0.00,Wunderground v.1.15,2013-03-06 14:35:00,
2013-03-06 08:45:00,17.4,15.2,30.50,ESE,120,1.0,2.0,91,0.00,,,0.00,Wunderground v.1.15,2013-03-06 14:45:00,
2013-03-06 08:55:00,17.2,14.8,30.50,ESE,123,2.0,4.0,90,0.00,,,0.00,Wunderground v.1.15,2013-03-06 14:55:00,
2013-03-06 09:05:00,17.8,15.6,30.50,ESE,105,0.0,3.0,91,0.00,,,0.00,Wunderground v.1.15,2013-03-06 15:05:00,
2013-03-06 09:10:00,17.8,15.6,30.50,ESE,111,1.0,1.0,91,0.00,,,0.00,Wunderground v.1.15,2013-03-06 15:10:00,
2013-03-06 09:15:00,17.9,15.7,30.50,ESE,120,1.0,3.0,91,0.00,,,0.00,Wunderground v.1.15,2013-03-06 15:15:00,
2013-03-06 09:25:00,18.5,16.3,30.50,SSW,212,1.0,3.0,91,0.00,,,0.00,Wunderground v.1.15,2013-03-06 15:25:00,
2013-03-06 09:35:00,18.5,16.1,30.50,SE,124,1.0,3.0,90,0.00,,,0.00,Wunderground v.1.15,2013-03-06 15:35:00,
2013-03-06 09:45:00,19.1,16.9,30.49,SSE,148,1.0,2.0,91,0.00,,,0.00,Wunderground v.1.15,2013-03-06 15:45:00,
2013-03-06 09:55:00,18.8,16.1,30.49,SSW,202,2.0,3.0,89,0.00,,,0.00,Wunderground v.1.15,2013-03-06 15:55:00,
2013-03-06 10:05:00,19.2,16.7,30.49,SE,144,1.0,3.0,90,0.00,,,0.00,Wunderground v.1.15,2013-03-06 16:05:00,
2013-03-06 10:15:00,20.0,17.3,30.49,SE,127,2.0,3.0,89,0.00,,,0.00,Wunderground v.1.15,2013-03-06 16:15:00,
2013-03-06 10:20:00,20.1,17.4,30.49,SSE,153,3.0,3.0,89,0.00,,,0.00,Wunderground v.1.15,2013-03-06 16:20:00,
2013-03-06 10:25:00,20.1,17.1,30.49,SSE,160,3.0,3.0,88,0.00,,,0.00,Wunderground v.1.15,2013-03-06 16:25:00,
2013-03-06 10:35:00,20.5,17.2,30.49,SSE,154,2.0,5.0,87,0.00,,,0.00,Wunderground v.1.15,2013-03-06 16:35:00,
2013-03-06 10:45:00,21.5,18.0,30.48,SSE,162,2.0,3.0,86,0.00,,,0.00,Wunderground v.1.15,2013-03-06 16:45:00,
2013-03-06 10:55:00,22.2,18.4,30.48,SSE,153,2.0,3.0,85,0.00,,,0.00,Wunderground v.1.15,2013-03-06 16:55:00,
2013-03-06 11:05:00,22.9,18.5,30.48,SE,136,3.0,3.0,83,0.00,,,0.00,Wunderground v.1.15,2013-03-06 17:05:00,
2013-03-06 11:15:00,23.5,19.1,30.47,ESE,103,2.0,3.0,83,0.00,,,0.00,Wunderground v.1.15,2013-03-06 17:15:00,
2013-03-06 11:20:00,23.8,19.1,30.47,SSE,155,2.0,2.0,82,0.00,,,0.00,Wunderground v.1.15,2013-03-06 17:20:00,
2013-03-06 11:30:00,25.1,20.1,30.47,SE,138,3.0,3.0,81,0.00,,,0.00,Wunderground v.1.15,2013-03-06 17:30:00,
2013-03-06 11:35:00,25.3,19.4,30.47,ESE,117,4.0,6.0,78,0.00,,,0.00,Wunderground v.1.15,2013-03-06 17:35:00,
2013-03-06 11:45:00,26.1,20.2,30.47,South,191,4.0,4.0,78,0.00,,,0.00,Wunderground v.1.15,2013-03-06 17:45:00,
2013-03-06 11:55:00,27.0,20.4,30.46,SE,143,3.0,6.0,76,0.00,,,0.00,Wunderground v.1.15,2013-03-06 17:55:00,
2013-03-06 12:00:00,27.3,20.4,30.45,ESE,122,3.0,5.0,75,0.00,,,0.00,Wunderground v.1.15,2013-03-06 18:00:00,
2013-03-06 12:10:00,27.9,20.7,30.45,SSE,149,3.0,5.0,74,0.00,,,0.00,Wunderground v.1.15,2013-03-06 18:10:00,
2013-03-06 12:15:00,28.5,21.3,30.45,SE,136,3.0,5.0,74,0.00,,,0.00,Wunderground v.1.15,2013-03-06 18:15:00,
2013-03-06 12:20:00,28.3,20.7,30.44,ENE,72,3.0,3.0,73,0.00,,,0.00,Wunderground v.1.15,2013-03-06 18:20:00,
2013-03-06 12:30:00,28.8,20.2,30.43,SSE,153,3.0,3.0,70,0.00,,,0.00,Wunderground v.1.15,2013-03-06 18:30:00,
2013-03-06 12:35:00,29.0,21.1,30.43,SE,143,4.0,4.0,72,0.00,,,0.00,Wunderground v.1.15,2013-03-06 18:35:00,
2013-03-06 12:45:00,30.5,21.9,30.43,ESE,120,2.0,4.0,70,0.00,,,0.00,Wunderground v.1.15,2013-03-06 18:45:00,
2013-03-06 12:50:00,30.5,21.5,30.42,ESE,115,3.0,5.0,69,0.00,,,0.00,Wunderground v.1.15,2013-03-06 18:50:00,
2013-03-06 12:55:00,30.7,22.1,30.42,East,96,4.0,5.0,70,0.00,,,0.00,Wunderground v.1.15,2013-03-06 18:55:00,
2013-03-06 13:05:00,31.1,22.5,30.41,SE,134,4.0,10.0,70,0.00,,,0.00,Wunderground v.1.15,2013-03-06 19:05:00,
2013-03-06 13:15:00,31.7,22.0,30.40,SSE,150,4.0,10.0,67,0.00,,,0.00,Wunderground v.1.15,2013-03-06 19:15:00,
2013-03-06 13:25:00,31.8,21.7,30.39,SSE,154,4.0,10.0,66,0.00,,,0.00,Wunderground v.1.15,2013-03-06 19:25:00,
2013-03-06 13:35:00,32.6,21.8,30.38,SSE,148,4.0,10.0,64,0.00,,,0.00,Wunderground v.1.15,2013-03-06 19:35:00,
2013-03-06 13:40:00,32.7,21.9,30.37,SSE,163,4.0,10.0,64,0.00,,,0.00,Wunderground v.1.15,2013-03-06 19:40:00,
2013-03-06 13:50:00,32.9,21.7,30.36,ESE,117,5.0,10.0,63,0.00,,,0.00,Wunderground v.1.15,2013-03-06 19:50:00,
2013-03-06 13:55:00,33.3,21.3,30.36,ENE,71,5.0,10.0,61,0.00,,,0.00,Wunderground v.1.15,2013-03-06 19:55:00,
2013-03-06 14:05:00,33.9,21.1,30.35,SSE,156,5.0,10.0,59,0.00,,,0.00,Wunderground v.1.15,2013-03-06 20:05:00,
2013-03-06 14:15:00,33.8,20.2,30.35,ESE,107,6.0,6.0,57,0.00,,,0.00,Wunderground v.1.15,2013-03-06 20:15:00,
2013-03-06 14:25:00,34.4,21.1,30.35,SSE,153,6.0,10.0,58,0.00,,,0.00,Wunderground v.1.15,2013-03-06 20:25:00,
2013-03-06 14:35:00,34.9,21.6,30.34,SE,124,5.0,10.0,58,0.00,,,0.00,Wunderground v.1.15,2013-03-06 20:35:00,
2013-03-06 14:45:00,35.2,22.7,30.33,ESE,110,5.0,6.0,60,0.00,,,0.00,Wunderground v.1.15,2013-03-06 20:45:00,
2013-03-06 14:55:00,35.2,21.5,30.33,SE,141,6.0,10.0,57,0.00,,,0.00,Wunderground v.1.15,2013-03-06 20:55:00,
2013-03-06 15:05:00,35.3,21.6,30.33,ESE,122,6.0,10.0,57,0.00,,,0.00,Wunderground v.1.15,2013-03-06 21:05:00,
2013-03-06 15:15:00,35.7,21.9,30.33,SSE,168,5.0,10.0,57,0.00,,,0.00,Wunderground v.1.15,2013-03-06 21:15:00,
2013-03-06 15:25:00,35.8,22.0,30.33,East,96,6.0,10.0,57,0.00,,,0.00,Wunderground v.1.15,2013-03-06 21:25:00,
2013-03-06 15:35:00,36.1,21.9,30.32,SE,141,6.0,10.0,56,0.00,,,0.00,Wunderground v.1.15,2013-03-06 21:35:00,
2013-03-06 15:45:00,36.3,22.1,30.32,ESE,104,6.0,12.0,56,0.00,,,0.00,Wunderground v.1.15,2013-03-06 21:45:00,
2013-03-06 15:55:00,36.5,22.3,30.31,SE,146,6.0,8.0,56,0.00,,,0.00,Wunderground v.1.15,2013-03-06 21:55:00,
2013-03-06 16:05:00,37.1,23.3,30.30,East,92,5.0,10.0,57,0.00,,,0.00,Wunderground v.1.15,2013-03-06 22:05:00,
2013-03-06 16:15:00,37.0,22.7,30.30,SSW,193,5.0,10.0,56,0.00,,,0.00,Wunderground v.1.15,2013-03-06 22:15:00,
2013-03-06 16:20:00,36.6,22.4,30.30,SSE,151,6.0,10.0,56,0.00,,,0.00,Wunderground v.1.15,2013-03-06 22:20:00,
2013-03-06 16:30:00,36.6,22.4,30.30,SE,138,6.0,6.0,56,0.00,,,0.00,Wunderground v.1.15,2013-03-06 22:30:00,
2013-03-06 16:40:00,36.6,21.9,30.29,SE,134,7.0,7.0,55,0.00,,,0.00,Wunderground v.1.15,2013-03-06 22:40:00,
2013-03-06 16:50:00,36.7,22.5,30.29,SE,142,5.0,5.0,56,0.00,,,0.00,Wunderground v.1.15,2013-03-06 22:50:00,
2013-03-06 17:00:00,36.5,21.8,30.29,SSE,147,7.0,7.0,55,0.00,,,0.00,Wunderground v.1.15,2013-03-06 23:00:00,
2013-03-06 17:05:00,36.3,22.1,30.29,ESE,105,7.0,10.0,56,0.00,,,0.00,Wunderground v.1.15,2013-03-06 23:05:00,
2013-03-06 17:15:00,36.3,22.1,30.28,SSE,159,7.0,10.0,56,0.00,,,0.00,Wunderground v.1.15,2013-03-06 23:15:00,
2013-03-06 17:25:00,36.3,22.5,30.28,SE,131,6.0,10.0,57,0.00,,,0.00,Wunderground v.1.15,2013-03-06 23:25:00,
2013-03-06 17:35:00,36.0,23.0,30.27,SE,142,8.0,8.0,59,0.00,,,0.00,Wunderground v.1.15,2013-03-06 23:35:00,
2013-03-06 17:45:00,36.0,23.0,30.27,SSE,148,5.0,10.0,59,0.00,,,0.00,Wunderground v.1.15,2013-03-06 23:45:00,
2013-03-06 17:55:00,35.7,22.4,30.27,ESE,105,7.0,12.0,58,0.00,,,0.00,Wunderground v.1.15,2013-03-06 23:55:00,
2013-03-06 18:00:00,35.6,22.7,30.26,SE,127,6.0,6.0,59,0.00,,,0.00,Wunderground v.1.15,2013-03-07 00:00:00,
2013-03-06 18:10:00,35.3,22.8,30.26,SE,126,4.0,4.0,60,0.00,,,0.00,Wunderground v.1.15,2013-03-07 00:10:00,
2013-03-06 18:15:00,35.2,22.7,30.26,SE,131,4.0,5.0,60,0.00,,,0.00,Wunderground v.1.15,2013-03-07 00:15:00,
2013-03-06 18:25:00,34.8,22.7,30.26,ESE,113,4.0,8.0,61,0.00,,,0.00,Wunderground v.1.15,2013-03-07 00:25:00,
2013-03-06 18:35:00,34.4,22.7,30.27,ESE,120,4.0,4.0,62,0.00,,,0.00,Wunderground v.1.15,2013-03-07 00:35:00,
2013-03-06 18:40:00,34.1,22.4,30.27,SE,143,4.0,4.0,62,0.00,,,0.00,Wunderground v.1.15,2013-03-07 00:40:00,
2013-03-06 18:50:00,33.7,22.4,30.27,ESE,110,3.0,4.0,63,0.00,,,0.00,Wunderground v.1.15,2013-03-07 00:50:00,
2013-03-06 19:00:00,33.3,22.8,30.27,SE,141,2.0,2.0,65,0.00,,,0.00,Wunderground v.1.15,2013-03-07 01:00:00,
2013-03-06 19:10:00,33.0,22.9,30.27,East,95,2.0,16.0,66,0.00,,,0.00,Wunderground v.1.15,2013-03-07 01:10:00,
2013-03-06 19:15:00,32.8,22.7,30.27,SSE,165,2.0,16.0,66,0.00,,,0.00,Wunderground v.1.15,2013-03-07 01:15:00,
2013-03-06 19:20:00,32.6,22.8,30.27,East,98,3.0,16.0,67,0.00,,,0.00,Wunderground v.1.15,2013-03-07 01:20:00,
2013-03-06 19:30:00,32.4,22.7,30.27,SE,134,4.0,4.0,67,0.00,,,0.00,Wunderground v.1.15,2013-03-07 01:30:00,
2013-03-06 19:40:00,32.1,22.7,30.27,SE,140,3.0,16.0,68,0.00,,,0.00,Wunderground v.1.15,2013-03-07 01:40:00,
2013-03-06 19:45:00,32.1,22.7,30.27,East,101,3.0,16.0,68,0.00,,,0.00,Wunderground v.1.15,2013-03-07 01:45:00,
2013-03-06 19:50:00,32.1,22.7,30.27,East,89,4.0,4.0,68,0.00,,,0.00,Wunderground v.1.15,2013-03-07 01:50:00,
2013-03-06 20:00:00,32.0,22.6,30.26,ESE,111,5.0,5.0,68,0.00,,,0.00,Wunderground v.1.15,2013-03-07 02:00:00,
2013-03-06 20:05:00,32.1,22.7,30.26,SE,140,5.0,16.0,68,0.00,,,0.00,Wunderground v.1.15,2013-03-07 02:05:00,
2013-03-06 20:15:00,32.0,22.6,30.26,East,79,4.0,16.0,68,0.00,,,0.00,Wunderground v.1.15,2013-03-07 02:15:00,
2013-03-06 20:25:00,31.6,22.6,30.26,East,84,4.0,16.0,69,0.00,,,0.00,Wunderground v.1.15,2013-03-07 02:25:00,
2013-03-06 20:30:00,31.3,22.3,30.26,ESE,106,4.0,16.0,69,0.00,,,0.00,Wunderground v.1.15,2013-03-07 02:30:00,
2013-03-06 20:35:00,31.1,22.5,30.26,SE,131,4.0,16.0,70,0.00,,,0.00,Wunderground v.1.15,2013-03-07 02:35:00,
2013-03-06 20:45:00,30.7,22.7,30.26,SE,124,4.0,16.0,72,0.00,,,0.00,Wunderground v.1.15,2013-03-07 02:45:00,
2013-03-06 20:55:00,30.4,22.8,30.26,SE,145,4.0,16.0,73,0.00,,,0.00,Wunderground v.1.15,2013-03-07 02:55:00,
2013-03-06 21:05:00,30.3,23.0,30.26,SE,146,4.0,16.0,74,0.00,,,0.00,Wunderground v.1.15,2013-03-07 03:05:00,
2013-03-06 21:15:00,30.1,23.1,30.26,SE,128,4.0,5.0,75,0.00,,,0.00,Wunderground v.1.15,2013-03-07 03:15:00,
2013-03-06 21:20:00,30.0,23.0,30.26,SSE,147,5.0,16.0,75,0.00,,,0.00,Wunderground v.1.15,2013-03-07 03:20:00,
2013-03-06 21:25:00,30.0,23.0,30.26,SE,137,5.0,16.0,75,0.00,,,0.00,Wunderground v.1.15,2013-03-07 03:25:00,
2013-03-06 21:35:00,29.8,22.8,30.26,SSE,158,4.0,16.0,75,0.00,,,0.00,Wunderground v.1.15,2013-03-07 03:35:00,
2013-03-06 21:40:00,29.7,22.7,30.25,ESE,103,4.0,16.0,75,0.00,,,0.00,Wunderground v.1.15,2013-03-07 03:40:00,
2013-03-06 21:50:00,29.6,23.0,30.25,ESE,102,4.0,4.0,76,0.00,,,0.00,Wunderground v.1.15,2013-03-07 03:50:00,
2013-03-06 22:00:00,29.4,22.8,30.26,SE,128,4.0,4.0,76,0.00,,,0.00,Wunderground v.1.15,2013-03-07 04:00:00,
2013-03-06 22:05:00,29.4,22.8,30.25,SE,131,4.0,7.0,76,0.00,,,0.00,Wunderground v.1.15,2013-03-07 04:05:00,
2013-03-06 22:20:00,29.2,22.9,30.26,East,84,4.0,16.0,77,0.00,,,0.00,Wunderground v.1.15,2013-03-07 04:20:00,
2013-03-06 22:25:00,29.1,22.8,30.26,ESE,107,4.0,16.0,77,0.00,,,0.00,Wunderground v.1.15,2013-03-07 04:25:00,
2013-03-06 22:35:00,28.9,22.9,30.27,East,89,5.0,16.0,78,0.00,,,0.00,Wunderground v.1.15,2013-03-07 04:35:00,
2013-03-06 22:40:00,28.9,22.9,30.27,SE,130,4.0,16.0,78,0.00,,,0.00,Wunderground v.1.15,2013-03-07 04:40:00,
2013-03-06 22:55:00,28.8,22.8,30.26,ESE,122,4.0,16.0,78,0.00,,,0.00,Wunderground v.1.15,2013-03-07 04:55:00,
2013-03-06 23:00:00,28.8,22.8,30.26,ESE,123,5.0,16.0,78,0.00,,,0.00,Wunderground v.1.15,2013-03-07 05:00:00,
2013-03-06 23:10:00,28.8,22.8,30.25,SE,131,5.0,16.0,78,0.00,,,0.00,Wunderground v.1.15,2013-03-07 05:10:00,
2013-03-06 23:15:00,28.7,22.7,30.25,ENE,64,5.0,16.0,78,0.00,,,0.00,Wunderground v.1.15,2013-03-07 05:15:00,
2013-03-06 23:20:00,28.7,22.7,30.25,ESE,113,5.0,5.0,78,0.00,,,0.00,Wunderground v.1.15,2013-03-07 05:20:00,
2013-03-06 23:25:00,28.6,22.6,30.25,East,91,5.0,16.0,78,0.00,,,0.00,Wunderground v.1.15,2013-03-07 05:25:00,
2013-03-06 23:35:00,28.5,22.8,30.25,SSE,152,5.0,16.0,79,0.00,,,0.00,Wunderground v.1.15,2013-03-07 05:35:00,
2013-03-06 23:55:00,28.2,22.8,30.25,SE,132,5.0,16.0,80,0.00,,,0.00,Wunderground v.1.15,2013-03-07 05:55:00,